Temp
19 20 20 19 19 20 20 21 21 21 20 20 21 21 21 21 21 21 22 22 22 22 22 22 22 23 23 23 23 23 24 24 24 22 21 23 25 24 24 24 24 24 24 24 24 23 23 23 23 22 23 23 21 22 22 22 22 23 23 22 22 22 22 24 24 24 24 25 25 25 25 24 25 25 24 24 24 25 25 25 24 23 23 24 26 25 24 24
19 20 20 19 19 20 20 20 21 21 20 20 20 21 21 21 21 21 21 21 21 22 22 22 22 22 22 23 23 23 24 24 23 22 22 24 24 24 24 24 24 24 23 23 24 23 23 23 22 22 23 23 21 22 22 22 22 23 22 22 22 22 23 23 24 24 24 24 25 24 23 23 24 24 24 24 24 24 24 25 24 24 24 23 24 25 24 23
19 19 19 19 19 19 20 20 21 21 20 21 21 21 21 21 21 21 21 21 21 21 22 22 22 22 22 23 23 23 23 23 24 24 24 24 25 24 24 24 24 24 23 23 23 23 23 23 23 22 23 23 22 22 22 22 22 22 21 22 23 23 23 23 23 23 24 24 24 25 23 23 24 23 23 24 23 23 23 24 24 24 25 24 23 23 24 23
17 17 16 17 18 18 19 19 20 20 20 20 20 20 20 20 20 20 21 21 21 21 21 22 22 22 22 23 23 23 23 23 24 25 25 25 25 24 24 24 23 23 23 23 23 23 23 23 22 23 23 23 21 21 22 22 22 22 21 23 24 23 23 25 24 23 23 23 23 24 23 24 24 23 23 23 23 23 23 23 24 24 25 25 23 22 22 22
14 14 14 15 17 16 17 18 19 19 19 19 19 20 20 20 20 20 20 20 21 21 21 21 22 22 22 23 23 23 23 23 25 25 25 25 24 24 24 23 23 23 23 23 23 23 23 22 22 23 23 23 22 22 22 22 22 22 22 24 24 22 23 25 25 24 23 23 23 23 23 24 24 23 24 23 23 23 24 24 24 24 24 24 23 21 21 21
11 12 12 14 15 15 16 17 18 18 18 18 18 19 19 19 19 20 20 20 20 20 20 21 21 21 22 22 22 22 23 24 25 25 25 25 24 24 24 24 23 23 23 23 23 23 23 22 23 23 23 22 22 23 23 21 22 23 22 22 23 22 23 24 24 23 23 23 23 23 23 23 23 23 23 23 23 24 25 24 23 23 22 22 21 21 21 22
11 12 12 15 16 15 17 17 17 17 17 18 18 18 18 18 18 19 19 20 20 20 20 20 21 21 21 22 21 21 22 23 25 25 24 24 24 24 23 23 23 23 22 22 23 23 23 23 23 23 22 23 22 22 22 22 22 22 22 22 23 22 22 23 23 22 22 22 23 22 22 22 23 23 22 23 24 24 24 22 21 20 20 20 21 21 20 19
12 13 13 16 17 17 17 17 17 17 17 17 17 17 17 18 18 18 19 19 19 20 20 20 20 20 21 21 21 21 21 23 24 24 24 24 24 23 23 23 23 22 22 22 23 22 22 23 23 22 22 22 22 22 22 22 22 21 22 22 22 22 23 23 22 22 22 22 22 21 22 23 22 22 22 23 24 24 23 22 21 20 20 21 20 19 17 15
13 14 15 17 17 16 16 16 16 16 16 16 16 17 17 17 17 18 18 18 19 19 19 19 19 20 20 20 20 21 22 23 23 23 23 23 23 23 23 23 22 22 22 22 22 22 22 23 23 23 23 22 22 22 22 22 22 21 22 22 22 22 22 22 22 23 22 22 22 22 23 23 21 21 22 24 25 24 22 23 23 22 23 22 17 15 14 13
14 14 16 17 16 16 15 15 16 16 16 16 16 16 16 17 17 17 18 18 19 19 19 19 19 19 19 19 19 21 22 23 23 23 23 23 23 23 22 22 22 22 22 22 21 22 22 23 22 21 22 22 22 21 21 22 22 21 21 21 22 22 21 22 22 22 21 21 22 22 22 22 21 22 23 25 25 23 22 23 22 23 24 19 14 13 12 12
14 15 16 16 16 15 15 15 15 15 16 16 16 16 17 17 17 17 18 18 18 19 19 19 19 19 18 18 20 21 22 22 22 22 23 23 23 22 22 22 22 22 22 21 21 21 22 23 21 21 22 22 21 21 21 21 21 21 21 22 22 22 22 22 22 22 21 22 22 21 22 21 21 22 23 25 25 23 22 23 21 23 22 16 13 12 11 11
14 14 15 15 15 15 15 15 15 15 15 15 16 16 17 17 17 18 18 18 18 18 18 19 19 18 18 18 19 21 21 21 21 22 22 22 22 22 21 22 21 21 22 21 21 21 22 22 22 22 22 21 21 22 21 20 21 21 21 22 22 22 22 23 22 21 22 22 22 22 23 22 22 22 25 25 23 22 23 23 21 21 18 14 12 11 11 11
14 14 14 15 15 15 15 15 15 15 15 16 16 16 17 17 17 18 18 18 18 18 18 18 18 18 18 19 20 21 21 21 21 21 21 21 21 21 21 21 21 21 21 21 21 21 22 22 23 22 21 21 21 21 21 20 21 21 21 21 21 21 22 24 22 21 22 21 21 22 22 23 24 23 25 24 21 22 24 23 21 18 15 12 12 11 10 10
14 13 14 14 15 15 15 15 15 15 15 16 16 16 17 17 17 17 18 18 18 18 18 18 18 17 18 19 21 20 20 20 20 20 20 20 20 20 20 20 20 20 21 21 21 21 21 22 22 21 20 21 21 21 21 21 21 21 20 20 20 20 22 24 22 21 22 21 21 23 21 22 25 24 25 23 21 22 23 22 19 16 13 12 11 11 10 9
12 13 13 13 14 15 15 15 15 15 15 16 16 16 16 16 17 17 17 17 18 18 18 17 17 17 17 19 20 20 19 19 19 19 19 20 20 20 20 20 20 20 20 21 21 21 21 22 22 21 21 20 21 21 20 20 20 20 20 20 19 19 21 23 22 21 23 22 21 22 21 21 23 24 25 22 20 22 22 21 18 14 13 12 11 10 10 9
11 12 12 12 13 14 15 15 15 15 15 16 16 16 16 16 16 16 17 17 17 17 16 16 16 17 18 20 20 19 19 19 19 19 19 19 20 20 19 19 19 20 20 20 21 21 21 22 21 20 21 20 20 20 20 20 20 19 19 20 19 19 20 21 22 22 22 22 22 22 21 22 22 24 25 22 20 21 21 19 16 13 12 11 10 10 9 9
11 12 12 12 13 14 14 14 15 15 15 16 16 16 16 16 16 16 16 16 16 16 16 16 16 17 19 20 19 20 19 19 19 19 19 19 19 19 19 19 18 19 20 20 20 21 20 20 19 19 20 19 19 20 20 19 20 19 19 19 19 19 19 20 22 22 21 22 22 22 21 21 23 23 23 22 20 21 20 18 14 12 11 10 10 9 8 8
12 11 12 12 13 14 14 14 14 15 15 16 16 16 16 17 16 16 16 16 16 16 16 16 16 18 20 19 19 20 19 18 19 18 19 19 19 19 20 19 18 19 20 19 20 19 19 19 19 19 19 18 19 19 19 20 20 20 19 19 19 19 19 20 21 22 22 22 22 22 21 21 22 22 21 21 20 21 19 16 13 11 11 10 9 9 8 8
12 11 11 12 12 13 14 14 14 14 15 15 16 16 16 16 16 15 15 15 16 18 19 17 18 20 21 19 19 18 18 18 18 18 18 19 19 19 19 19 18 19 19 19 19 19 19 19 19 19 19 19 19 19 20 21 21 21 20 20 20 20 20 19 20 21 21 21 21 21 21 21 22 21 21 20 20 21 18 14 12 11 10 10 9 8 8 7
11 11 11 12 12 13 14 14 14 14 14 15 16 16 16 17 17 17 15 14 16 18 19 19 19 20 20 19 18 17 18 18 18 18 18 18 19 19 19 18 18 19 19 20 19 18 18 19 19 20 20 20 20 19 20 20 20 20 19 19 19 19 19 20 20 21 21 21 21 21 21 21 21 21 21 19 20 20 18 14 12 10 10 9 9 8 8 7
12 12 12 12 12 13 14 14 13 14 14 14 15 15 17 18 18 18 16 16 16 16 17 18 18 19 20 19 18 18 19 19 17 17 17 18 19 19 19 18 18 19 18 18 18 17 18 19 19 20 21 21 20 18 19 19 19 19 19 19 19 18 19 20 20 20 20 20 20 20 20 21 21 21 19 18 19 17 15 14 11 10 9 8 8 8 7 7
12 12 12 12 12 12 13 13 13 13 14 14 14 14 15 16 17 17 16 17 17 15 16 16 16 17 18 19 18 19 20 19 18 17 17 18 18 19 19 18 18 19 17 17 18 18 17 18 19 20 20 19 19 18 18 18 18 18 18 18 18 18 18 20 20 19 19 20 20 19 19 20 21 20 17 16 16 13 11 12 10 9 9 8 8 7 7 7
12 13 13 13 13 12 13 13 13 13 14 14 14 14 15 15 16 16 15 16 17 16 16 16 16 17 17 18 19 19 19 19 19 18 17 18 18 18 18 18 18 18 17 17 18 18 17 18 19 19 18 18 18 18 18 18 18 18 18 18 18 18 18 20 20 19 19 19 19 19 19 19 20 19 16 13 12 10 9 10 9 9 8 8 8 7 7 7
12 13 13 13 13 13 13 13 13 13 14 14 14 15 15 16 16 16 15 16 16 16 17 16 17 17 18 18 18 18 18 18 19 18 17 18 18 17 18 18 18 18 17 17 18 18 19 20 19 18 17 17 18 18 17 18 18 18 18 18 18 19 19 19 19 19 19 18 18 19 19 19 20 20 17 13 11 10 9 9 8 8 8 7 7 7 7 6
13 13 13 13 13 13 13 13 13 14 14 14 14 15 15 16 15 15 16 16 16 16 17 16 17 17 18 17 18 18 18 18 18 17 16 18 18 17 18 18 18 18 17 17 17 17 18 19 18 19 18 17 18 18 18 18 18 18 19 19 19 20 19 19 18 18 19 19 18 18 19 19 19 20 18 14 12 11 10 9 9 8 8 7 7 7 6 6
13 13 13 13 13 13 12 13 13 14 14 14 15 15 15 15 15 15 16 16 16 17 17 17 17 17 17 17 17 18 18 18 16 15 16 17 17 18 18 18 18 18 17 17 16 17 18 18 18 19 19 18 18 18 17 18 18 18 18 18 19 19 18 18 18 18 18 18 17 17 19 19 18 20 19 15 13 12 9 9 9 8 8 7 7 7 6 6
13 13 13 13 13 13 12 13 14 13 14 14 15 15 15 15 15 14 16 16 17 18 18 16 17 17 17 16 16 18 18 17 15 15 16 16 17 18 18 18 18 18 18 17 17 17 18 18 18 18 19 19 18 17 18 18 19 19 17 17 19 19 18 18 18 18 18 17 17 17 18 17 16 19 20 15 13 12 10 9 9 8 8 7 7 7 6 6
13 13 13 13 13 13 13 13 14 13 14 14 15 15 15 15 14 15 17 17 18 19 18 16 16 17 16 15 16 17 16 16 17 16 15 16 17 17 17 18 18 18 18 18 18 17 17 18 18 18 18 18 18 18 18 18 19 18 16 16 18 18 18 17 18 18 16 15 17 17 17 16 16 17 18 16 15 14 11 9 8 8 7 7 7 6 6 6
12 13 13 13 12 12 13 13 13 14 14 14 14 15 15 14 14 16 16 17 19 20 18 17 16 16 16 16 16 16 15 15 17 15 14 16 17 17 17 17 17 18 17 17 18 17 17 17 17 18 18 18 18 17 16 18 19 17 15 16 17 16 16 17 17 17 16 15 16 17 17 17 17 17 17 16 17 16 12 9 8 8 7 7 7 6 6 6
12 12 12 12 12 12 12 12 13 14 14 14 14 14 14 15 15 16 16 17 19 19 17 17 16 16 16 16 16 16 16 16 15 15 15 16 16 16 16 16 16 18 17 16 17 17 16 15 15 17 18 18 17 14 13 16 17 16 16 18 18 16 16 16 15 16 16 16 16 17 17 17 17 18 18 16 17 16 12 9 8 8 7 7 7 6 6 6
12 12 12 12 12 12 12 12 13 13 13 14 14 14 15 15 15 16 16 17 19 18 17 17 16 16 16 16 16 16 16 15 15 15 16 15 16 16 16 16 16 17 17 17 17 16 16 16 16 17 16 16 17 15 13 14 15 16 18 18 18 17 16 16 15 15 16 16 17 16 15 15 16 18 18 15 14 14 13 11 8 8 7 7 7 6 6 6
12 12 12 12 12 12 12 13 13 13 13 13 13 14 15 15 15 16 16 18 19 18 18 17 15 16 16 16 17 16 16 16 15 15 15 15 15 15 16 16 16 16 16 16 17 16 17 17 16 16 16 16 18 17 15 15 15 17 18 17 17 16 16 16 16 15 15 16 16 14 14 15 16 17 15 12 11 11 13 11 8 7 7 6 6 6 6 6
12 12 12 12 12 12 12 13 13 13 13 13 13 14 15 15 15 16 16 18 19 18 18 18 16 16 16 16 17 16 16 16 15 15 15 15 15 15 15 15 15 16 16 16 16 17 17 17 15 16 17 17 18 18 17 17 16 16 17 17 17 16 15 15 15 14 15 16 15 13 14 15 16 16 11 9 9 8 10 10 8 7 7 6 6 6 6 6
12 12 12 12 12 12 12 13 13 13 12 12 13 14 14 15 16 16 17 18 18 17 18 18 17 16 16 17 17 16 16 17 15 15 16 15 15 15 16 15 14 15 16 16 16 16 18 18 17 17 17 17 17 18 18 17 15 15 16 16 17 16 16 16 16 16 16 17 15 14 15 17 18 15 8 7 7 6 7 8 7 7 6 5 6 6 6 6
12 11 11 11 11 11 12 12 12 12 12 12 13 14 14 15 15 16 17 18 18 17 17 17 17 16 16 17 17 17 17 17 15 15 16 15 15 16 16 17 15 15 16 17 16 16 16 18 17 16 15 16 17 16 16 17 16 14 14 15 16 17 17 17 16 16 16 16 15 15 16 16 14 10 7 7 7 6 7 6 6 6 5 5 6 6 6 6
11 10 10 10 11 11 11 12 12 11 12 12 13 14 15 16 16 16 17 18 18 18 17 17 17 17 16 17 17 16 17 17 16 16 15 15 15 15 16 18 16 16 17 18 17 16 16 17 16 14 15 15 16 16 16 17 17 15 14 16 15 15 17 17 15 14 14 15 15 15 16 14 13 11 8 8 7 7 6 6 6 6 5 6 6 6 6 6
10 9 10 10 10 11 11 11 11 11 12 13 13 14 15 16 16 16 17 17 17 18 17 17 17 17 16 17 17 17 17 17 16 16 16 15 16 16 16 18 16 16 17 18 18 17 17 17 16 15 16 15 13 15 16 15 16 15 15 17 15 14 16 16 16 15 14 14 14 15 16 15 15 14 10 7 8 7 6 6 6 6 6 7 7 6 6 6
9 9 9 10 10 11 11 11 11 11 12 13 13 14 15 15 16 16 17 16 17 17 17 17 17 17 17 17 17 16 17 17 16 16 16 16 17 17 17 17 16 15 16 17 18 17 16 17 16 14 15 15 13 15 16 14 14 15 15 16 15 16 16 15 15 15 14 14 14 15 16 15 16 15 12 11 10 8 6 6 6 6 6 7 7 6 6 6
9 9 10 11 11 11 11 11 11 11 12 13 13 14 14 14 15 16 16 16 16 17 17 17 17 17 16 16 17 16 16 16 16 16 16 16 17 17 17 17 16 15 15 16 17 17 16 17 16 14 14 15 14 15 16 15 14 14 15 15 15 16 16 15 14 15 15 14 14 15 15 15 16 14 14 14 11 8 7 7 6 6 6 6 6 6 6 6
9 10 11 10 11 11 11 10 11 11 12 13 14 14 14 14 15 15 15 16 16 16 16 16 16 16 16 15 16 15 15 16 15 15 16 16 17 17 16 16 17 16 15 16 17 16 16 16 16 15 14 14 15 15 16 16 15 15 15 15 15 15 15 15 14 14 15 14 14 14 14 15 15 11 12 14 11 8 8 8 7 6 6 6 6 6 6 6
10 11 11 10 10 10 10 10 11 12 13 13 14 14 14 14 15 14 14 15 15 14 15 16 16 16 15 15 15 15 15 15 15 15 15 15 16 17 15 15 16 16 16 17 17 15 16 16 15 15 14 15 16 15 14 15 15 15 16 15 15 15 14 14 14 14 14 14 14 14 13 15 14 10 11 12 10 9 8 8 7 6 7 7 6 6 6 5
10 11 11 9 9 10 10 11 12 12 12 13 14 14 13 14 15 14 14 14 15 14 14 14 15 15 15 15 14 14 14 14 14 14 14 15 16 16 15 14 15 16 16 16 15 14 14 15 15 15 15 15 14 12 12 13 14 15 15 14 14 14 14 14 13 14 14 13 14 14 13 14 12 9 10 11 10 9 8 8 8 7 7 7 7 6 6 5
10 10 9 9 9 10 11 12 12 12 12 12 13 14 13 14 14 14 13 14 14 14 13 14 14 14 14 14 14 14 14 14 14 14 14 14 15 15 14 14 15 16 16 14 14 13 13 14 14 14 14 14 13 12 12 12 13 14 14 13 13 13 14 13 12 12 12 13 13 13 12 13 11 9 9 9 9 9 8 8 9 8 7 6 6 6 6 5
10 10 9 9 9 10 11 12 12 12 12 12 13 13 13 13 13 13 13 13 14 13 13 13 13 14 14 14 14 14 14 14 13 13 14 14 14 13 12 13 14 15 15 14 14 15 14 14 13 13 13 13 13 12 12 12 13 13 13 12 12 12 12 11 11 11 10 11 13 12 12 13 11 9 9 9 9 10 9 8 8 8 7 6 6 6 6 5
9 10 9 9 9 10 11 12 12 12 12 12 12 12 12 12 13 13 13 14 13 13 13 13 13 14 14 13 13 13 13 14 14 13 13 13 13 12 11 12 13 14 14 13 14 14 14 13 13 13 12 13 13 13 12 12 12 12 11 11 11 11 11 11 11 10 10 11 12 11 11 12 10 9 9 10 10 11 10 8 7 8 7 7 7 6 5 5
10 10 9 9 9 10 10 10 11 11 12 12 12 12 12 12 12 12 13 13 13 13 13 13 13 13 13 13 13 13 13 13 13 13 13 12 12 11 10 10 12 12 12 11 12 13 13 12 12 13 13 13 13 12 11 11 12 12 11 11 11 10 10 10 10 10 10 10 10 10 11 11 11 10 10 10 10 11 11 10 9 9 8 7 6 6 5 5
10 10 9 9 10 10 10 10 10 10 11 12 12 12 12 12 12 12 12 13 13 13 13 13 12 13 13 12 12 12 13 12 12 12 12 12 11 10 9 10 11 11 11 11 11 12 12 11 12 12 12 12 12 11 10 10 12 12 11 12 12 10 9 9 10 10 10 10 9 11 11 10 11 11 10 10 10 10 10 10 10 9 8 7 6 5 5 4
9 9 9 10 10 10 10 10 10 10 10 11 11 12 12 12 12 12 12 12 12 12 12 12 12 12 13 13 13 12 12 12 12 12 12 11 11 10 9 10 10 9 10 10 10 11 12 11 11 10 11 10 10 9 10 10 10 11 10 11 11 10 9 8 9 10 10 9 9 11 11 9 10 11 10 10 10 10 10 10 9 8 7 6 6 6 5 4
8 8 8 8 9 10 10 11 10 10 10 10 11 11 11 11 11 12 12 11 11 12 12 12 12 12 12 12 13 12 12 12 12 12 12 11 11 10 10 10 10 9 10 10 10 10 11 11 10 10 10 10 8 8 9 9 9 9 9 9 9 9 8 8 8 9 9 8 9 9 9 9 9 9 9 10 9 9 9 8 7 7 7 7 6 6 5 4
7 7 7 7 8 8 9 10 10 10 10 10 10 10 11 11 11 12 12 12 11 11 11 12 12 12 12 12 12 12 12 13 12 12 12 11 11 10 10 10 10 8 9 10 10 9 10 10 9 9 10 9 7 7 8 8 8 8 8 8 7 7 7 7 7 8 7 7 8 8 7 7 8 9 8 8 8 7 7 7 8 8 7 7 7 6 5 4
5 5 6 7 8 8 8 9 10 10 10 10 10 10 10 11 11 12 12 11 12 12 11 11 12 12 11 11 11 12 12 13 13 12 12 11 11 10 11 11 10 9 9 9 9 9 9 9 8 8 9 8 6 7 8 7 7 7 7 7 7 7 7 7 7 7 7 7 7 7 6 7 8 9 8 7 7 7 8 8 7 7 5 5 7 6 4 4
5 5 5 6 7 7 8 9 9 9 10 10 10 10 11 11 12 12 11 10 10 10 10 11 12 11 10 10 11 11 11 11 10 9 9 9 9 9 9 9 9 9 9 8 8 8 8 8 8 8 8 7 5 6 7 7 6 7 7 8 8 7 7 7 7 7 7 7 7 7 7 7 8 8 7 8 8 7 7 6 6 6 5 4 5 6 5 5
Height
831 831 830 831 830 830 830 830 830 830 830 830 830 830 830 830 830 830 830 829 829 829 829 828 828 827 826 825 825 824 822 821 820 819 818 816 816 817 817 817 817 817 818 818 819 820 820 821 820 821 821 822 824 825 824 824 824 827 835 842 843 847 843 834 833 831 831 829 824 822 821 824 823 819 816 814 816 816 813 809 807 807 805 804 803 802 803 803
830 830 830 830 830 830 830 830 830 829 830 830 830 830 829 829 829 830 829 829 829 828 828 828 827 827 826 825 824 823 822 820 819 817 816 815 815 816 817 817 817 817 818 818 819 819 820 822 821 821 822 825 827 826 826 826 826 831 840 844 842 841 835 828 828 827 828 827 823 822 823 825 822 819 817 818 821 820 817 811 806 807 804 803 803 803 803 803
830 830 830 830 829 830 829 829 829 829 829 829 829 829 829 829 829 829 829 829 828 828 828 827 827 826 826 825 823 823 821 820 819 817 815 815 815 816 816 816 817 817 818 818 819 819 820 821 820 822 825 827 828 828 829 828 828 833 839 843 838 833 830 826 826 825 825 824 823 822 822 823 819 817 817 819 822 821 819 814 809 808 803 802 803 803 803 802
830 830 829 829 829 829 829 829 829 829 829 829 829 829 829 828 828 828 828 828 827 827 827 826 826 825 826 824 824 824 821 822 820 816 815 815 815 816 816 816 817 817 818 818 819 819 820 820 820 822 826 829 830 830 830 828 829 833 835 837 832 829 829 823 821 823 822 822 823 822 822 821 816 816 817 818 823 821 816 812 810 808 803 800 801 803 803 802
830 829 829 829 829 829 829 829 829 829 829 829 829 828 828 828 828 828 827 827 827 827 826 826 826 825 825 824 825 822 823 829 822 814 816 816 815 816 816 816 817 817 818 818 819 819 820 820 821 824 827 830 831 831 831 828 828 833 832 829 827 829 828 820 819 821 820 821 821 822 822 819 815 816 816 818 823 819 810 806 807 805 803 801 799 801 801 801
829 829 829 829 829 829 829 829 829 828 829 828 828 828 828 827 827 827 826 826 826 826 825 825 825 825 824 823 824 822 827 831 819 813 816 815 816 816 816 816 817 817 818 818 818 819 820 820 823 826 829 830 832 831 830 828 828 832 830 827 826 827 826 820 819 819 819 821 820 821 820 818 818 818 816 816 816 811 803 803 804 802 801 801 800 799 799 800
828 828 828 828 828 828 828 828 828 828 828 828 828 827 827 827 826 826 825 825 825 825 825 824 824 824 823 823 823 823 827 824 814 814 816 814 816 816 816 816 816 817 818 818 818 819 820 822 824 827 829 831 831 830 829 828 828 831 831 827 825 825 824 820 820 819 819 820 818 819 819 818 819 819 817 813 808 803 801 802 802 801 800 800 800 800 801 801
827 827 827 827 828 828 828 828 828 828 828 827 827 827 827 826 826 825 825 825 824 824 824 823 823 823 823 823 823 826 827 819 813 815 814 814 816 815 816 816 816 817 817 818 818 819 820 822 824 826 830 831 830 829 828 828 829 831 830 827 825 824 822 820 820 819 817 817 817 819 818 815 816 818 817 809 802 799 800 801 800 801 800 799 802 803 803 803
827 827 827 827 827 827 827 827 827 827 827 827 827 826 826 825 825 825 824 824 823 823 823 823 823 822 823 822 824 828 823 814 813 814 813 814 815 815 815 815 816 817 817 818 818 819 820 822 823 824 827 829 828 828 828 829 831 830 828 827 825 824 821 820 819 816 816 816 816 818 815 812 814 817 814 804 798 798 799 801 800 801 799 801 805 806 806 805
826 826 826 826 826 827 827 827 827 827 827 826 826 826 825 825 824 824 823 823 822 822 822 822 822 822 823 822 826 828 818 811 813 813 813 814 814 815 814 815 816 816 817 818 818 818 819 820 820 820 823 826 827 828 829 829 830 827 827 826 824 824 821 819 817 814 816 815 814 817 815 813 814 817 814 801 795 797 799 801 801 800 801 805 809 809 809 808
825 825 825 825 826 826 826 826 826 826 826 825 825 825 824 824 823 823 822 822 821 821 821 821 821 821 822 822 826 824 814 811 813 812 813 813 813 814 814 815 815 815 817 817 818 818 817 818 818 820 823 826 826 828 827 826 826 826 826 825 821 822 819 815 815 814 814 813 811 814 814 814 816 817 811 799 794 797 799 801 802 801 803 809 811 811 811 811
824 824 825 825 825 825 825 825 825 825 825 825 825 824 824 823 823 822 822 821 821 821 820 820 821 821 822 823 822 817 812 812 813 812 813 813 814 814 814 815 814 815 816 816 818 817 818 818 817 821 824 825 828 829 827 825 825 825 826 827 824 823 819 812 812 814 813 812 809 811 815 815 816 813 802 796 797 798 798 799 802 804 807 812 813 813 814 814
823 824 824 824 824 825 825 825 825 825 824 824 824 823 823 822 822 821 821 820 820 820 820 820 820 820 822 822 816 812 812 812 812 813 813 813 814 814 814 815 814 815 815 816 817 816 818 817 817 821 822 824 828 827 825 824 824 825 827 830 828 829 823 810 811 815 812 813 809 812 822 817 809 806 799 798 800 800 799 799 804 808 811 814 815 815 816 816
823 823 823 823 824 824 824 824 824 824 824 824 823 823 822 821 821 820 820 820 819 819 819 819 820 820 822 819 812 811 812 811 812 812 812 813 814 814 814 815 815 815 816 816 817 817 817 817 818 820 821 824 825 824 826 827 826 828 831 832 836 838 826 809 811 815 812 813 809 812 826 818 804 802 798 799 801 801 801 801 806 811 814 816 817 818 818 818
822 822 822 823 823 823 823 824 824 823 823 823 822 822 821 821 820 819 819 819 818 819 818 819 819 820 822 817 810 810 811 811 812 811 812 813 813 814 814 814 815 815 816 817 817 817 817 817 818 821 823 823 824 827 832 833 830 832 835 837 842 842 829 814 810 813 812 812 810 815 825 820 808 802 796 798 802 802 803 805 810 814 816 818 818 819 820 820
821 821 821 822 822 822 822 823 823 822 822 822 821 821 820 820 819 819 819 818 818 818 818 820 819 820 822 816 810 810 810 810 810 811 812 812 813 813 814 814 815 816 816 817 817 817 817 818 820 823 824 825 828 833 836 839 837 837 839 839 840 840 837 826 811 810 812 810 812 815 820 819 810 801 795 797 802 803 804 808 814 817 818 820 820 821 821 821
821 821 821 821 821 821 822 822 822 821 821 820 820 820 819 819 818 818 818 818 819 818 819 819 819 820 818 812 810 810 809 809 809 810 811 811 813 813 813 815 815 816 816 817 817 818 818 820 824 826 827 830 832 834 841 847 843 838 841 841 839 838 839 832 817 811 812 811 814 815 818 817 807 800 797 796 800 802 804 810 816 820 820 821 822 822 823 823
820 820 820 820 820 820 821 821 821 821 820 819 819 818 818 818 818 818 818 818 819 819 820 820 820 823 817 810 810 809 808 808 809 810 811 811 812 813 813 814 815 816 817 819 819 820 822 824 827 829 832 835 834 836 843 843 836 833 837 839 838 836 835 832 824 815 811 813 815 816 819 816 806 803 801 799 799 800 805 813 817 820 822 823 824 824 825 825
819 819 819 819 819 820 820 820 820 820 819 819 818 818 817 817 817 817 818 819 819 819 819 817 817 819 815 808 807 807 807 808 808 809 810 811 812 813 813 814 816 817 819 823 823 823 824 827 831 833 834 834 832 833 833 828 826 828 831 834 835 835 832 829 824 817 813 817 817 816 818 814 807 803 802 802 802 801 807 815 819 822 824 825 826 827 827 827
817 818 818 818 819 819 819 820 819 819 819 818 818 817 817 818 819 819 818 818 816 812 812 811 810 810 809 806 806 807 807 808 808 809 810 810 811 813 814 815 817 820 822 823 825 826 826 831 833 830 828 825 824 827 824 823 827 830 832 835 835 836 833 826 821 815 813 819 817 814 816 813 808 804 804 806 804 804 809 815 822 825 826 827 828 829 829 829
816 817 818 818 818 818 819 819 819 819 818 818 817 817 817 817 819 819 817 814 809 807 807 806 806 806 804 804 804 804 806 807 808 808 809 810 810 814 815 817 821 823 825 825 827 827 829 834 831 822 818 817 820 825 826 827 830 832 834 835 836 838 833 824 820 817 815 819 818 816 817 813 806 804 808 808 806 811 816 818 825 827 829 830 830 830 831 831
815 816 817 818 817 818 818 818 819 818 818 818 817 817 816 815 816 816 816 815 808 805 806 804 805 805 801 802 803 803 805 807 809 808 809 809 811 814 815 819 822 824 826 827 828 831 836 836 825 816 818 820 823 825 827 829 831 833 836 838 837 835 832 824 819 818 818 819 818 818 819 813 805 807 814 815 815 823 825 823 828 830 831 833 833 833 833 833
813 814 815 816 817 818 818 818 818 817 817 817 816 816 815 814 815 814 816 818 811 803 802 802 803 803 801 801 800 801 805 806 807 807 807 809 811 813 815 819 823 824 827 827 827 834 838 829 817 815 821 824 824 825 827 830 831 833 835 837 836 831 832 827 821 819 818 820 820 818 819 814 806 807 818 824 825 829 831 830 832 833 834 835 835 836 835 834
811 812 814 814 816 817 817 818 817 816 816 815 815 815 814 814 815 815 816 818 815 804 798 798 799 798 798 798 797 800 804 803 804 805 805 807 810 814 814 816 821 824 825 824 823 827 825 816 811 816 822 824 824 825 829 832 832 832 831 832 830 826 828 826 824 822 819 821 821 819 821 815 806 806 815 826 828 830 833 834 836 836 836 837 837 837 837 836
809 810 812 813 815 815 816 817 815 815 814 814 814 813 814 814 814 815 816 818 817 806 798 796 797 797 795 796 797 798 801 802 801 803 803 804 807 811 812 813 818 822 823 823 825 827 820 812 812 816 821 824 825 824 827 830 832 830 824 823 821 820 822 824 826 827 827 827 824 824 827 818 807 806 813 823 826 830 835 836 838 839 838 839 839 839 839 837
806 808 809 811 813 814 816 815 813 814 813 813 813 812 814 814 814 815 816 823 820 804 798 798 796 796 794 796 797 797 803 804 801 802 802 804 805 806 811 812 813 816 818 822 826 825 817 811 812 815 817 821 825 826 824 825 831 831 823 819 818 820 824 826 828 830 833 833 828 827 830 824 814 805 807 819 825 830 837 838 839 841 840 840 840 841 841 840
804 806 807 809 811 812 814 813 813 813 813 812 811 812 814 812 815 814 816 829 820 795 794 799 796 795 794 796 796 797 805 804 801 803 802 804 804 804 811 813 812 813 813 819 824 819 812 810 813 815 816 820 824 824 822 821 826 827 823 821 819 819 823 826 828 830 832 835 832 828 829 831 826 811 804 816 825 830 837 840 840 841 841 841 841 842 842 841
802 803 805 807 808 810 811 811 811 811 811 811 810 812 812 812 816 814 821 833 812 785 790 796 794 794 794 797 796 798 804 802 802 806 803 804 805 805 810 812 812 812 809 815 821 816 811 811 812 813 817 821 819 816 817 818 820 822 824 825 822 821 825 826 827 830 835 840 836 829 831 835 829 813 808 815 819 824 833 839 840 841 841 841 842 842 842 842
799 801 802 805 806 808 809 809 809 809 809 810 810 812 811 813 814 815 830 831 799 781 790 793 794 797 796 798 799 800 802 802 803 805 803 804 804 805 810 811 811 811 811 814 815 812 811 812 811 811 814 815 813 817 818 815 815 820 824 825 824 827 830 829 831 832 837 842 837 830 832 834 824 811 811 816 811 812 827 838 840 840 841 841 842 843 843 843
796 798 800 802 804 805 806 806 807 808 809 810 810 811 811 813 816 825 836 820 790 786 793 792 795 798 798 801 803 802 802 803 804 804 805 806 805 806 809 810 810 811 813 815 813 812 813 814 813 810 809 809 812 822 824 818 818 820 822 821 823 829 831 834 838 837 839 838 829 825 826 829 826 811 806 813 810 809 822 835 839 840 842 842 842 843 843 843
793 795 797 799 800 801 802 803 803 806 809 809 810 811 812 815 820 828 824 800 788 793 793 794 799 798 799 802 803 803 803 805 805 804 807 808 808 810 811 812 813 815 818 816 814 815 814 813 813 808 808 811 812 819 824 823 822 819 819 820 825 831 833 837 841 842 844 834 821 825 829 832 831 812 804 814 816 812 815 824 834 837 840 842 842 843 844 844
790 792 794 795 797 798 799 799 800 804 807 808 810 809 813 822 822 818 807 791 789 793 788 793 799 797 800 801 800 802 804 805 806 805 807 811 812 812 812 812 813 818 823 819 816 817 813 811 812 809 809 810 809 816 824 824 822 820 821 825 832 839 841 842 843 845 845 832 824 832 832 833 827 810 811 821 822 820 815 817 827 833 837 841 842 843 844 845
787 789 791 792 793 794 795 796 798 801 803 806 809 808 814 822 811 799 797 790 786 786 784 787 792 794 799 799 799 802 803 803 805 806 807 810 812 812 811 811 812 815 818 819 820 819 813 811 813 811 808 806 806 813 819 820 822 822 821 824 833 844 849 847 845 848 842 826 825 834 833 829 817 811 825 832 830 830 822 820 827 832 836 840 842 844 844 845
784 786 787 789 790 791 792 795 796 797 801 804 807 809 813 811 796 788 791 787 781 783 783 784 789 794 796 796 796 797 799 801 803 804 806 809 812 811 809 809 812 812 812 818 821 818 816 811 807 807 806 804 804 806 808 813 821 823 820 822 827 831 836 836 833 834 829 820 824 831 828 817 806 815 835 837 834 835 828 828 833 836 840 842 843 845 844 845
781 783 785 786 788 789 790 793 794 795 799 802 805 807 803 795 790 789 787 782 781 783 783 784 788 794 796 795 794 792 792 796 801 803 805 807 808 807 803 802 806 809 810 813 815 816 818 809 801 805 807 804 804 805 806 810 818 826 827 825 824 819 818 824 827 825 826 825 825 823 816 812 815 829 839 836 835 837 834 835 837 839 843 843 843 845 844 845
778 781 783 785 785 787 789 791 793 794 796 800 804 802 792 785 785 786 780 776 778 781 784 788 788 793 797 795 794 793 789 792 799 802 804 806 805 803 799 794 797 803 802 804 808 812 815 809 803 807 807 804 805 804 805 807 811 825 829 821 820 819 813 820 829 831 833 831 824 816 811 814 821 827 835 836 836 838 838 839 840 841 843 842 842 843 843 844
777 779 781 782 782 784 787 789 791 793 794 798 801 794 785 781 779 778 775 774 776 776 782 790 788 788 794 794 793 793 790 792 798 799 802 805 800 797 795 791 792 796 793 794 799 801 806 806 804 806 804 805 810 806 805 807 809 819 822 813 816 821 817 820 826 831 836 834 824 815 809 811 811 814 830 838 836 838 840 840 841 842 841 840 841 841 842 843
775 778 779 778 779 782 785 788 789 791 794 797 795 788 782 780 776 775 774 775 776 777 781 787 784 783 789 791 791 791 791 793 798 798 800 801 794 788 788 789 792 795 791 791 795 797 802 804 804 807 807 806 809 806 806 810 809 811 813 809 813 819 818 822 827 828 831 831 824 813 809 810 806 807 818 824 825 834 840 841 841 840 839 839 839 840 842 842
774 778 777 774 776 780 782 786 787 790 793 792 787 784 781 778 776 774 774 775 777 778 780 782 781 784 788 788 788 791 792 793 796 797 796 796 792 785 784 786 790 793 791 790 793 796 800 804 805 808 808 806 807 807 808 810 811 811 811 810 812 814 814 817 822 821 821 825 823 816 811 806 802 805 807 806 816 831 836 838 838 837 838 838 839 840 840 840
773 776 774 770 773 777 780 784 786 788 788 782 779 780 778 776 775 773 773 775 776 778 780 780 780 784 787 787 788 790 791 793 795 795 793 792 790 787 786 786 787 791 791 789 792 796 798 803 807 808 809 808 806 806 804 804 808 811 811 812 812 813 814 816 818 815 815 821 822 821 817 804 802 813 810 803 815 827 829 831 834 837 839 839 839 839 838 837
771 773 771 769 771 774 778 783 783 783 781 777 775 776 776 774 774 774 775 775 776 779 780 779 780 781 784 788 789 788 791 794 794 795 794 792 790 789 789 788 787 789 791 789 792 797 799 802 805 806 808 806 802 803 804 802 803 805 806 809 808 810 815 819 819 813 812 816 815 816 816 803 802 816 813 808 815 822 825 828 831 835 836 836 837 836 835 835
770 770 769 769 770 772 777 779 779 778 778 775 773 773 774 772 772 774 776 776 777 779 780 780 781 782 784 786 787 788 790 793 794 794 794 791 788 787 788 790 788 786 789 794 797 799 801 803 806 806 804 803 804 808 809 806 804 803 805 807 808 810 813 816 818 813 811 814 811 813 813 805 808 817 815 812 813 817 824 826 827 832 832 832 832 831 832 833
768 769 769 769 770 771 774 775 776 776 774 772 770 771 772 772 771 773 775 776 777 778 781 782 781 782 782 783 786 788 788 792 793 792 792 791 788 786 788 789 788 786 789 797 800 800 802 805 809 809 804 803 806 809 810 808 806 805 806 808 811 811 809 812 816 816 817 814 811 816 815 805 811 818 816 817 817 817 823 823 822 826 828 829 829 829 831 831
767 769 769 770 770 771 770 769 770 772 771 770 771 771 772 772 771 772 773 774 775 777 780 782 780 780 780 781 783 785 787 791 792 791 790 790 789 790 790 789 788 788 790 794 795 797 802 805 810 814 812 808 808 810 812 810 807 808 809 811 814 813 813 818 821 823 826 818 811 818 814 803 812 821 818 820 820 816 820 823 822 823 825 826 827 827 828 829
767 769 770 769 769 769 767 763 764 766 767 769 771 771 773 774 771 770 770 771 772 774 777 778 778 778 779 782 784 785 785 787 789 789 789 790 791 792 792 791 790 789 791 794 793 794 800 804 806 811 813 810 806 807 812 811 809 812 814 814 815 814 815 820 821 824 827 819 814 818 811 803 813 821 817 817 818 814 816 822 824 823 824 825 824 825 827 828
765 768 770 771 769 768 766 763 765 765 765 767 770 770 770 772 770 769 769 769 770 772 774 776 777 779 780 783 785 786 785 785 787 788 788 790 792 794 795 795 792 791 793 796 795 796 802 805 802 801 801 800 799 804 812 811 807 810 813 813 814 818 820 821 823 826 823 820 820 815 808 809 812 813 815 817 816 815 815 817 820 820 821 823 824 825 826 827
763 765 767 769 768 767 765 764 765 766 765 766 768 766 767 768 769 769 770 769 769 771 774 775 776 778 780 782 784 784 783 785 787 787 788 790 793 797 798 795 794 795 795 796 797 798 803 806 803 801 801 801 804 809 813 812 807 808 811 809 809 816 823 825 824 822 818 823 822 809 806 815 811 805 811 816 814 815 815 814 816 816 818 821 823 824 825 827
764 763 762 762 763 763 763 761 762 765 766 765 765 764 765 767 768 769 770 770 770 770 773 776 775 774 774 776 780 782 783 785 787 786 787 791 794 798 799 797 797 798 797 799 800 799 801 803 804 807 807 808 814 817 815 815 814 813 813 810 806 811 821 826 825 818 816 821 817 806 808 816 811 806 810 813 813 813 812 812 814 815 817 819 821 822 823 826
764 764 762 762 761 759 758 757 760 765 765 766 767 765 764 766 766 765 766 770 773 771 771 773 772 771 773 774 775 778 779 780 783 783 784 788 791 794 797 797 798 800 799 799 801 801 801 802 807 810 807 808 818 821 818 818 819 817 816 814 812 816 823 825 821 816 817 820 815 812 816 815 809 808 810 809 811 812 812 814 815 814 815 817 818 820 821 824
763 763 763 763 763 761 760 758 759 764 764 766 768 765 763 765 764 762 763 766 769 769 770 770 768 768 772 773 771 772 770 770 775 777 778 784 788 790 793 792 794 801 801 798 801 803 803 806 812 813 809 813 822 823 819 821 822 820 818 816 818 825 826 823 819 818 823 824 818 819 824 818 807 807 810 811 811 813 813 813 812 812 815 816 817 819 821 823
764 764 763 764 762 761 761 759 758 761 762 763 762 760 761 762 759 759 761 761 762 763 765 765 765 767 771 772 770 767 765 765 768 769 771 776 779 782 783 784 789 796 799 801 802 801 803 810 816 816 813 817 826 827 822 822 826 825 818 814 819 824 819 814 815 817 817 818 818 822 825 817 804 804 810 811 811 811 810 810 812 814 817 818 816 817 821 822
764 765 765 766 763 761 760 758 758 758 754 752 754 754 755 755 754 756 761 763 763 764 763 761 763 767 770 770 768 766 767 770 773 775 777 778 779 781 783 784 786 789 794 800 803 804 806 808 812 816 815 821 832 831 822 826 831 822 807 802 809 813 810 809 811 810 809 812 816 818 814 807 803 806 809 809 809 810 810 813 815 815 817 819 818 818 820 820
Wind_Speed
2 2 2 2 2 2 2 2 2 2 2 3 3 3 3 3 4 4 5 5 5 6 7 8 8 9 10 11 12 13 15 16 15 11 6 5 5 4 2 1 2 6 8 8 9 7 4 2 1 1 2 2 3 1 3 3 2 4 4 3 0 3 3 5 4 3 1 3 5 5 0 3 4 4 3 2 4 5 7 8 5 4 5 8 12 11 9 7
3 2 2 1 2 2 2 3 3 2 2 3 3 3 4 3 4 4 4 4 5 6 6 7 8 9 9 10 12 13 15 16 14 10 5 5 8 5 1 1 3 7 8 8 9 8 6 1 2 3 4 2 2 2 2 2 3 3 3 2 2 5 5 5 6 4 1 3 5 5 2 3 4 2 1 2 4 6 7 11 7 7 9 9 12 13 10 6
3 3 3 2 2 2 2 3 2 2 2 3 3 3 3 3 4 4 4 4 5 5 6 7 7 8 9 9 10 12 14 13 8 5 2 8 9 5 3 3 4 7 7 7 8 7 4 1 3 4 4 2 1 2 2 2 1 2 4 1 5 6 5 5 5 6 5 4 3 6 3 3 4 2 1 2 4 6 6 9 8 10 12 8 6 7 6 5
2 2 3 3 2 1 2 2 2 2 2 2 3 3 3 4 4 4 4 4 5 5 6 6 6 7 7 8 8 9 11 7 2 3 6 9 8 5 4 4 6 8 8 6 6 5 3 2 3 4 4 1 3 3 1 2 1 2 3 4 6 4 2 7 5 4 5 3 3 4 4 7 5 1 1 3 5 7 7 7 7 10 14 12 6 3 4 7
3 2 2 3 2 2 2 2 2 2 2 2 3 4 4 5 5 5 5 5 5 5 6 6 6 6 6 6 6 7 7 5 2 5 7 8 8 5 4 6 8 10 10 7 5 5 3 2 4 4 4 0 2 3 2 3 3 2 3 6 6 4 3 8 5 2 2 0 2 3 5 6 3 2 1 1 3 6 7 7 8 10 11 12 11 7 5 6
4 3 2 3 2 2 3 2 2 2 2 3 3 4 5 6 6 7 6 5 5 5 6 6 6 6 6 5 5 3 3 0 3 4 8 9 7 4 3 5 8 11 11 8 5 4 3 4 5 2 2 0 2 2 4 3 3 3 4 4 5 5 4 6 3 3 3 2 4 2 4 3 3 6 3 3 7 9 10 8 7 10 12 13 12 9 8 7
4 3 2 3 2 2 3 2 2 2 3 3 4 5 6 6 7 8 8 7 6 5 6 6 6 6 5 4 3 2 3 4 7 5 8 9 7 4 3 4 8 11 12 9 5 4 4 5 3 4 4 1 3 4 4 2 2 4 4 4 5 5 6 5 3 5 4 4 6 2 3 4 3 5 3 5 11 12 11 7 6 10 13 13 9 7 7 7
4 3 3 3 2 2 2 1 2 2 3 3 5 6 6 7 8 8 9 8 7 6 6 5 5 5 4 2 1 3 1 7 8 7 9 10 8 5 4 5 7 11 11 9 5 4 4 4 4 4 3 2 4 3 3 2 1 4 5 4 3 3 5 6 6 8 7 6 5 1 5 9 7 2 3 11 15 13 7 5 6 7 9 8 7 8 8 9
4 3 3 3 2 1 1 1 1 2 3 4 5 6 7 8 9 10 10 10 9 7 6 4 5 4 4 2 4 2 4 6 6 7 8 10 9 6 5 5 8 11 10 6 4 4 3 3 4 3 4 3 3 2 2 2 2 4 5 3 4 5 6 6 7 8 7 5 2 2 10 11 4 3 4 12 15 10 3 5 7 6 7 7 9 10 10 10
3 2 2 2 2 1 1 1 2 3 4 4 6 6 7 9 9 10 10 11 10 8 7 4 5 5 5 2 5 1 5 3 3 6 7 9 8 6 6 5 8 11 8 4 3 3 2 4 4 4 5 2 2 2 1 2 3 4 3 4 5 6 7 5 7 9 5 5 4 6 12 9 3 2 3 10 11 5 5 5 6 6 7 8 10 9 10 11
3 2 2 2 2 1 1 2 2 3 4 5 6 7 8 9 10 11 11 11 10 8 7 5 5 5 4 3 5 4 4 2 2 5 7 7 6 6 6 5 7 10 8 3 3 3 3 5 5 5 1 1 1 2 2 3 2 2 1 6 7 6 8 7 7 8 3 4 6 8 7 5 2 1 6 11 9 5 7 6 4 6 6 9 9 8 9 10
3 3 3 2 2 1 1 2 2 3 4 6 7 8 9 10 11 11 11 10 9 8 6 5 5 6 4 2 4 8 6 3 3 5 6 6 6 6 5 5 5 7 7 3 3 3 3 4 6 4 2 2 1 2 1 2 1 0 2 4 8 7 8 10 6 3 3 2 5 8 2 4 1 6 11 11 7 7 8 6 5 7 7 8 7 7 8 10
5 4 3 3 3 2 2 2 2 3 4 6 7 9 10 11 12 12 11 10 9 7 5 5 5 7 5 1 6 10 9 6 5 5 5 5 5 6 5 4 4 4 5 4 4 5 4 3 5 4 2 4 1 2 1 1 1 2 2 1 5 7 6 9 2 2 2 2 5 6 1 6 6 9 12 9 6 7 9 8 7 7 7 7 6 7 7 10
5 5 4 3 3 2 2 2 2 3 5 6 8 10 11 12 12 12 10 10 8 6 4 4 6 6 4 3 5 6 9 8 6 5 5 5 5 6 6 5 4 3 3 4 5 5 4 3 5 4 1 3 1 2 3 5 3 1 2 1 2 2 5 9 3 1 1 1 3 4 2 6 8 10 11 7 2 4 7 8 7 7 6 6 6 7 7 10
6 5 5 4 2 1 2 2 2 3 5 7 8 10 11 12 12 11 9 9 7 3 1 3 6 5 1 5 5 4 6 7 8 8 6 7 6 5 5 6 4 3 3 4 4 4 3 3 4 3 1 1 3 2 3 4 3 2 0 3 3 2 5 11 7 3 4 1 4 4 3 6 8 11 11 4 3 4 5 6 6 6 6 6 5 6 6 7
4 3 3 4 3 2 2 1 2 3 5 7 8 10 11 12 11 8 7 5 3 3 4 3 5 4 1 3 1 1 5 6 7 8 7 7 7 4 5 6 4 4 4 3 4 3 3 3 2 1 1 2 4 4 3 4 4 3 1 3 3 3 2 7 6 1 4 1 2 2 2 4 6 9 11 4 3 5 5 5 6 6 6 6 5 6 5 5
5 4 4 4 4 3 2 1 2 4 6 7 8 9 10 12 8 4 4 2 4 5 5 3 3 1 2 2 0 1 4 5 7 8 8 6 6 6 6 5 4 5 5 4 3 3 3 3 1 0 2 2 3 4 3 2 4 4 1 3 4 4 3 3 5 5 3 4 0 1 2 5 9 10 12 9 4 6 5 5 6 5 5 5 5 6 6 6
7 8 7 6 4 3 1 1 2 4 6 8 8 10 10 8 4 1 2 3 4 5 4 2 3 1 3 2 2 2 3 5 7 8 8 6 7 7 5 4 5 6 6 4 3 3 2 3 2 0 2 2 2 5 3 4 4 4 3 3 4 3 4 5 4 4 3 4 2 4 3 8 12 10 11 10 7 6 5 6 6 6 6 5 6 6 6 7
9 8 7 6 5 3 1 1 3 5 7 8 8 9 7 4 1 1 1 3 3 2 0 2 3 2 3 3 2 2 3 6 6 6 8 7 9 7 5 5 6 6 4 2 2 1 1 3 3 1 1 2 5 7 9 9 7 6 5 4 4 4 5 6 5 5 2 2 5 6 6 8 11 11 9 7 6 5 5 7 6 5 6 5 6 6 6 7
9 5 4 4 3 2 1 1 3 5 7 8 7 6 2 1 2 2 1 2 4 5 3 5 7 3 3 2 3 6 5 5 3 3 8 9 9 7 4 4 5 5 2 3 2 0 3 4 2 4 6 8 10 11 11 8 3 2 2 2 4 5 6 5 5 6 2 1 7 6 5 8 10 10 7 6 6 5 5 7 6 5 5 5 6 6 6 6
9 5 6 5 3 4 3 2 4 6 8 9 6 3 2 3 1 2 2 3 9 10 7 8 10 8 6 3 7 10 5 2 0 2 8 9 9 8 1 2 4 1 1 3 3 1 4 4 7 10 11 9 7 8 8 5 2 2 3 4 5 5 7 6 5 7 1 2 6 3 2 8 10 9 6 6 6 6 4 6 6 6 6 4 5 6 5 5
12 9 8 7 6 7 5 4 6 7 8 8 4 2 3 3 2 1 1 2 8 9 10 10 7 8 9 7 9 9 4 1 2 2 8 8 6 6 2 3 4 3 2 3 4 2 2 4 12 13 8 2 1 5 6 5 5 4 2 2 5 4 4 6 5 5 2 2 4 3 2 8 11 6 5 6 4 5 5 6 6 5 6 5 5 5 5 5
14 11 9 7 6 6 5 6 8 8 8 7 4 3 3 3 2 1 3 0 6 5 6 7 5 6 6 6 9 9 4 5 4 4 9 9 3 4 5 5 5 3 3 5 5 5 4 7 13 11 5 2 3 3 6 3 3 3 3 3 5 4 1 4 5 5 4 1 2 3 3 7 9 3 6 6 5 6 7 8 7 5 6 5 5 5 5 5
16 14 11 8 7 5 4 7 10 9 8 6 6 5 4 3 3 3 2 0 4 4 5 6 4 5 4 3 8 10 5 4 3 4 11 11 4 3 5 5 6 4 5 8 9 7 7 8 5 4 5 6 7 5 5 4 3 4 5 6 5 5 6 6 4 4 5 4 2 2 5 5 7 4 2 3 4 7 6 7 8 6 6 5 5 5 5 5
18 17 14 10 8 5 4 8 9 8 5 5 6 6 5 4 4 4 2 1 3 5 3 3 2 3 3 3 7 8 2 2 2 3 10 12 6 3 3 3 5 6 7 8 8 6 9 6 3 5 4 6 6 6 5 7 3 4 5 9 9 7 7 5 2 5 4 5 3 3 3 5 4 3 2 4 3 5 5 5 6 5 5 5 5 5 5 5
17 18 19 14 10 8 5 5 5 4 3 5 6 6 6 4 4 5 2 3 3 4 1 2 2 3 4 3 4 5 3 2 1 2 6 8 4 3 2 2 2 5 7 5 4 3 6 5 4 5 5 6 6 6 5 7 5 3 5 7 8 5 4 4 1 2 0 4 4 3 1 6 4 3 4 5 4 4 4 5 5 4 4 4 4 4 4 4
15 18 20 14 12 11 6 2 4 4 2 5 7 8 6 3 4 4 2 3 4 3 3 1 0 3 4 2 2 5 3 3 2 3 3 3 1 2 2 3 2 3 4 4 1 3 5 5 4 6 6 5 5 5 6 8 6 3 4 4 5 5 4 4 5 4 3 3 5 4 2 4 5 4 5 6 7 3 3 4 4 3 3 4 4 3 3 4
16 16 17 14 13 14 10 5 4 5 3 3 7 9 5 3 4 2 3 2 3 2 3 1 1 2 1 1 2 4 2 1 4 1 1 4 1 2 1 5 5 4 2 5 4 5 3 5 6 7 6 5 6 5 7 9 5 6 4 5 6 5 5 4 6 2 1 2 4 4 1 3 5 6 3 5 6 4 5 5 4 4 4 4 4 3 3 4
18 15 15 15 13 14 17 12 8 8 6 5 8 8 6 5 4 4 3 3 1 2 1 1 2 1 1 2 3 3 1 2 2 2 1 3 1 3 2 5 4 3 2 3 5 4 0 4 6 7 6 6 5 2 5 8 4 4 4 6 5 6 5 5 5 3 3 2 5 5 3 2 5 5 3 2 3 6 5 5 5 5 4 5 4 3 3 4
22 19 17 16 14 16 19 17 17 13 7 8 9 7 7 5 2 2 4 4 0 1 1 1 2 1 4 4 1 0 2 1 0 1 2 1 2 4 1 2 4 2 2 3 2 4 2 2 2 4 4 5 5 3 1 4 4 5 6 6 6 6 5 4 3 4 3 4 6 8 9 6 4 5 3 3 3 5 7 6 6 6 5 5 4 3 4 3
26 23 22 19 18 21 17 11 20 21 11 11 11 8 6 1 2 4 6 2 2 0 2 1 1 3 5 5 2 2 2 1 0 3 2 1 2 3 2 1 3 2 3 4 3 4 5 2 2 2 2 4 6 4 3 3 4 6 5 5 3 4 4 4 4 4 1 6 6 6 7 6 5 5 2 2 5 2 7 9 11 10 7 6 5 4 4 3
29 27 27 25 22 23 17 10 17 22 16 13 10 6 3 1 3 5 3 1 1 2 4 3 2 4 5 4 2 4 4 1 1 3 4 3 2 3 2 3 4 2 2 4 3 4 4 4 3 3 1 4 6 4 3 5 5 5 5 5 3 2 3 3 3 0 3 7 5 4 5 2 6 5 3 5 6 6 4 8 13 13 10 7 6 5 4 4
30 29 27 28 26 25 24 16 13 19 20 14 8 3 3 4 6 5 4 2 2 2 3 3 4 5 6 3 2 4 3 2 4 3 2 4 4 4 4 4 5 3 1 3 2 1 3 5 2 1 3 2 7 5 2 1 2 4 5 5 4 2 1 3 4 2 4 6 3 3 4 1 5 3 4 5 6 7 3 5 9 10 10 8 6 5 4 4
30 30 28 28 28 25 25 19 12 20 24 14 5 3 5 7 4 5 8 6 1 2 2 4 5 6 6 4 4 4 3 2 5 5 2 4 4 3 5 5 5 3 1 3 2 4 2 5 2 4 2 3 7 6 5 5 4 4 4 5 5 5 4 4 4 3 4 5 3 1 3 3 3 2 3 4 5 5 4 7 8 7 7 6 5 5 4 4
28 27 25 25 26 23 23 19 15 22 23 10 2 5 8 7 2 3 6 5 2 2 1 3 6 6 3 2 3 4 4 3 5 5 3 4 4 4 4 6 7 5 3 3 2 2 3 5 6 2 1 5 7 4 5 7 2 1 3 4 3 5 5 3 3 5 4 2 3 2 3 3 3 1 3 3 4 5 6 7 8 7 5 5 5 4 4 4
24 22 19 21 24 24 22 19 18 24 20 6 3 7 6 3 2 3 3 3 4 4 4 2 3 4 4 2 2 4 2 1 4 4 2 3 4 4 4 4 7 9 6 4 3 2 2 4 5 2 0 5 6 4 4 4 2 1 2 3 4 4 6 2 3 1 3 1 4 2 2 3 1 1 2 3 5 5 5 5 7 6 6 6 5 5 5 5
21 18 14 16 22 25 24 21 22 24 14 4 6 8 3 2 3 3 1 1 2 4 6 3 1 4 5 2 3 5 2 1 3 3 2 3 3 4 5 3 4 10 10 5 2 3 4 3 5 2 3 4 3 3 3 2 4 5 3 5 3 2 4 3 1 2 1 3 4 1 3 4 2 2 1 2 2 3 3 4 5 5 6 6 6 6 5 5
20 13 8 14 22 24 24 23 23 18 7 4 10 10 4 3 3 2 1 1 2 3 4 5 4 4 4 4 3 4 4 3 4 4 3 3 3 4 7 4 2 6 8 5 1 2 4 2 6 1 3 2 2 3 2 3 2 5 4 4 3 2 1 1 2 2 2 3 3 4 4 3 3 4 2 4 7 7 5 4 5 7 8 7 7 6 5 5
15 7 3 11 21 22 24 25 20 11 3 6 11 9 4 3 3 2 3 3 2 2 4 4 2 2 3 4 3 3 4 4 5 4 3 3 3 2 4 3 3 2 3 6 5 2 3 2 4 2 2 1 3 3 3 3 1 2 1 1 1 2 3 2 2 3 2 3 3 4 4 3 5 4 5 7 9 9 8 6 8 9 8 7 6 6 6 6
10 3 1 7 17 23 26 22 12 5 5 7 7 5 3 3 3 2 2 3 2 1 3 3 3 3 3 3 3 2 2 2 5 3 2 3 2 1 1 1 3 1 1 4 4 0 2 3 3 2 1 1 1 2 5 6 3 2 2 2 1 1 1 1 1 2 3 3 3 3 4 5 4 3 5 6 6 10 10 9 8 7 6 6 6 6 7 7
4 1 2 7 18 25 23 13 4 4 5 4 4 4 3 3 3 2 1 1 2 0 2 3 4 4 4 3 2 3 3 2 3 2 2 2 1 1 2 1 3 3 1 4 3 1 1 2 2 1 0 2 4 3 3 5 5 4 4 4 4 3 2 2 4 2 2 3 3 3 6 6 3 2 3 4 5 9 10 8 7 7 8 8 8 9 9 8
3 2 2 9 22 27 17 5 3 3 4 4 3 2 2 2 4 4 1 2 2 1 1 2 3 3 3 3 3 4 4 3 3 3 2 4 4 3 3 2 2 3 3 2 1 0 2 3 1 3 3 5 3 1 1 2 4 4 2 2 3 3 4 4 6 3 2 1 1 1 5 5 3 3 3 4 6 8 8 8 7 7 9 10 10 10 9 7
2 1 2 13 26 24 11 5 5 4 4 3 2 1 2 2 3 4 4 2 2 2 2 1 2 3 3 3 3 3 3 2 4 4 3 4 4 2 1 2 2 4 4 2 1 0 2 3 2 3 3 3 2 3 4 3 3 2 1 1 3 3 3 4 4 3 2 2 1 1 5 4 2 2 2 2 3 6 6 7 8 8 8 9 10 9 8 7
2 1 1 12 26 21 7 5 8 7 6 3 2 3 1 1 3 5 5 5 4 3 3 2 2 3 3 3 4 4 4 3 3 5 4 4 3 1 2 2 4 3 2 2 2 2 1 2 2 1 3 4 3 2 3 4 1 2 2 1 1 3 5 3 1 2 1 4 4 5 7 5 1 2 2 1 2 4 5 6 6 6 7 8 8 8 8 7
2 1 2 5 17 14 4 2 5 7 9 7 5 5 3 1 3 6 6 6 4 4 3 2 2 3 3 3 3 4 6 6 5 4 4 3 2 2 3 2 2 4 3 1 3 4 3 3 3 4 6 8 6 4 3 2 1 0 1 2 1 3 5 3 1 2 2 3 4 5 7 3 1 1 1 2 2 3 5 5 4 5 6 6 7 7 6 6
2 1 0 0 5 6 3 1 2 2 6 8 5 5 6 5 3 3 6 5 3 4 3 1 2 2 3 5 5 5 7 7 4 3 3 4 2 2 3 3 1 3 4 5 4 3 2 2 4 6 9 8 5 5 4 3 3 2 2 3 4 3 4 4 3 3 3 2 3 7 7 3 4 5 5 4 5 5 6 5 5 7 7 7 6 5 5 5
1 1 3 2 1 3 4 3 3 2 2 5 5 4 7 9 4 2 5 5 4 6 4 1 3 4 5 6 6 6 7 6 5 4 4 3 2 1 2 3 4 2 3 5 4 4 3 2 4 6 7 5 3 4 3 3 4 4 4 6 8 6 5 7 4 5 4 2 6 10 7 4 8 10 6 6 6 6 6 6 7 8 7 6 4 4 5 6
1 0 2 1 1 3 5 5 6 5 4 4 3 3 6 9 8 5 4 2 2 6 5 2 5 10 10 9 7 5 6 6 6 6 4 3 3 1 1 2 1 2 3 3 2 3 4 3 3 4 4 2 4 4 3 3 3 4 6 8 11 10 5 7 6 9 7 6 10 10 6 6 10 9 5 6 7 7 7 7 6 5 5 4 5 6 6 6
1 0 1 1 1 2 4 5 7 8 9 7 4 4 7 9 10 7 4 3 1 5 8 7 9 11 10 9 8 7 7 8 7 7 6 4 4 4 2 1 1 1 4 3 1 1 3 2 2 3 3 2 2 3 4 4 3 4 7 11 11 9 5 7 10 12 9 9 11 11 10 12 11 8 7 6 6 6 5 3 3 4 5 5 6 6 7 7
2 0 0 1 1 1 1 2 7 8 9 8 7 8 9 9 10 7 4 5 6 5 8 12 12 9 10 11 10 11 11 10 8 9 9 8 6 5 4 3 2 2 2 3 1 1 1 1 1 3 1 4 1 2 3 2 3 5 9 12 9 3 4 10 12 9 5 8 11 10 9 12 11 6 5 4 2 3 4 4 5 5 5 6 6 7 7 7
2 1 1 1 2 3 2 2 5 6 7 8 9 9 9 11 13 9 4 5 7 6 8 14 15 9 8 11 13 14 13 10 10 9 9 10 8 5 4 4 6 6 3 3 2 0 1 1 1 4 2 4 2 2 2 2 3 5 12 14 10 5 7 10 7 6 8 9 9 7 6 9 10 4 1 2 3 5 5 6 4 3 4 5 6 7 6 7
2 1 1 2 1 2 3 3 4 6 6 8 9 10 10 11 9 8 5 2 1 3 4 10 12 7 7 12 15 11 6 5 5 4 4 5 4 4 3 3 6 7 6 5 2 1 3 4 1 3 3 4 4 2 2 5 5 7 11 10 10 10 11 10 7 8 10 7 5 6 7 8 7 3 1 4 6 6 5 5 3 3 4 5 5 6 6 7
Wind_Direction
276 270 250 236 258 272 278 293 299 298 313 315 315 311 311 313 311 316 320 321 320 321 323 322 326 326 325 328 328 328 327 325 322 307 281 255 204 190 290 291 174 169 168 166 158 152 135 110 175 98 50 40 16 349 344 343 61 51 78 97 243 194 205 188 174 182 171 274 271 303 11 157 278 307 316 348 21 326 302 293 271 285 267 238 256 278 305 294
309 309 295 260 258 278 289 294 310 326 314 311 317 313 315 319 320 330 328 324 321 318 320 322 325 324 326 328 328 330 327 325 320 304 273 193 166 160 179 157 164 167 170 174 173 160 133 137 211 98 50 33 337 357 355 328 72 84 116 112 234 202 216 199 177 195 208 252 257 281 231 195 257 270 340 310 311 329 315 294 300 306 281 260 261 272 289 259
312 322 322 309 279 285 293 296 316 338 322 319 324 315 318 320 326 340 333 327 321 320 321 322 323 324 327 326 329 332 327 328 324 304 172 149 147 141 143 150 164 171 180 180 180 175 150 210 191 127 54 26 303 18 42 329 51 147 120 121 242 216 235 238 196 202 225 226 256 282 269 286 280 222 309 327 309 309 281 275 296 303 294 289 252 248 273 235
307 323 326 317 305 300 302 302 310 318 324 333 327 314 314 313 322 330 330 326 321 319 317 319 321 320 323 323 329 330 334 346 306 211 159 149 143 136 142 161 172 179 187 175 175 195 219 247 174 122 74 20 317 16 143 256 239 165 136 181 231 204 237 262 240 229 231 200 229 281 327 317 294 204 326 359 339 303 273 246 242 267 287 296 290 254 250 233
304 308 326 317 322 327 314 309 307 314 322 330 321 317 315 313 316 317 319 320 314 313 311 312 312 312 316 319 322 329 356 20 257 210 180 163 151 154 161 166 174 186 189 182 185 195 202 146 108 74 62 89 330 30 242 238 143 163 215 206 219 176 222 266 257 267 287 280 283 309 320 299 304 332 285 291 289 271 268 246 228 248 268 284 297 303 276 240
288 288 306 309 322 308 299 307 314 320 323 318 315 320 320 316 315 311 309 309 306 304 301 299 301 302 304 306 308 332 48 49 264 208 189 177 167 176 174 173 178 189 193 197 202 178 158 95 85 96 79 67 205 189 248 253 149 210 270 246 238 206 225 273 285 301 337 344 292 284 289 298 1 318 273 220 241 240 260 264 251 263 269 280 293 300 299 288
276 275 280 294 299 283 288 303 314 324 327 323 325 329 327 324 322 314 310 309 303 296 290 289 292 288 290 290 289 14 93 241 258 215 200 190 188 202 202 203 193 192 193 196 194 158 121 88 109 153 108 22 212 211 243 276 175 209 257 281 261 217 220 254 281 281 276 252 251 234 319 297 279 297 314 273 258 252 265 283 274 273 282 290 300 313 322 336
261 259 261 276 276 283 295 306 320 335 337 344 347 345 338 332 327 321 318 314 309 300 288 279 277 272 274 242 186 9 338 249 252 231 221 207 204 217 222 217 201 196 193 196 185 154 129 124 173 160 118 233 196 212 263 335 1 201 228 279 289 252 244 264 279 276 276 261 244 270 292 270 242 227 303 274 269 270 280 314 305 298 307 316 348 6 17 25
253 251 247 247 244 297 349 346 1 8 359 4 358 352 344 338 333 328 324 320 317 311 301 276 261 247 239 191 99 24 269 242 248 240 221 208 212 224 221 211 203 197 189 199 184 147 146 170 202 182 174 207 183 226 319 18 296 213 210 263 283 284 282 285 282 275 280 269 226 284 278 278 252 178 258 264 261 276 332 336 325 350 343 359 37 39 39 37
244 236 222 209 171 134 109 43 28 21 11 4 355 351 342 338 334 328 325 322 320 315 309 281 254 230 218 174 102 150 256 240 243 232 208 205 212 214 208 199 199 196 186 184 174 158 167 194 194 153 157 154 171 236 49 135 209 216 213 263 265 280 289 269 267 277 285 269 224 230 265 289 310 188 262 269 259 291 5 333 340 6 356 35 57 50 43 40
225 206 190 178 155 152 122 65 36 20 9 359 350 345 338 336 333 328 327 324 320 316 307 283 252 221 194 153 141 207 251 243 234 212 198 200 196 191 192 187 189 197 196 154 137 168 185 195 158 116 151 170 179 293 315 173 178 217 273 306 298 321 307 275 270 276 278 275 207 185 250 304 15 211 238 257 270 335 345 330 15 14 14 62 67 51 46 40
179 167 155 146 147 149 111 62 33 17 0 353 344 340 337 334 331 328 329 326 322 316 299 276 245 208 168 133 206 228 245 235 211 184 178 173 171 184 189 191 191 198 206 163 108 127 149 179 133 115 232 164 134 319 270 194 151 323 44 325 305 352 323 283 284 249 174 262 184 152 292 314 183 223 241 257 294 342 330 330 32 31 39 73 70 56 50 34
172 159 151 149 146 138 99 69 33 7 353 348 340 339 335 331 332 330 331 327 324 319 293 262 233 196 161 228 236 233 242 234 205 187 181 170 176 196 196 196 191 194 206 168 119 105 112 164 132 132 178 123 206 272 126 1 345 315 25 330 301 359 321 279 299 119 158 211 173 142 297 282 247 243 254 272 313 340 326 329 17 38 59 78 65 60 51 35
180 172 169 162 149 131 99 85 35 3 351 343 338 337 331 331 333 329 331 328 325 322 288 239 205 176 158 248 257 249 239 224 214 212 208 200 196 203 199 189 179 177 184 148 126 96 90 123 114 102 134 124 204 289 14 356 355 325 330 348 337 353 281 288 309 136 218 249 136 127 196 261 275 274 270 273 311 356 326 333 21 51 69 69 59 59 51 40
182 189 180 167 161 129 108 85 26 0 343 334 333 333 329 330 331 329 332 330 330 330 233 182 174 156 114 271 271 268 226 211 214 218 214 205 198 204 201 188 177 154 136 132 123 101 99 109 95 95 270 4 56 45 351 347 355 29 301 309 335 191 265 305 304 189 198 296 67 114 206 268 278 277 276 273 94 55 343 348 44 69 69 66 59 57 54 44
180 215 207 179 174 135 108 60 2 339 327 325 326 327 325 327 325 324 332 340 11 85 116 141 161 142 341 268 268 238 208 204 209 205 199 195 197 189 160 157 152 135 129 125 123 115 96 71 59 129 153 30 69 85 37 5 338 349 183 251 273 197 261 313 311 265 175 177 49 127 213 282 279 273 281 294 76 56 22 34 74 81 68 69 64 55 55 43
191 226 243 210 173 139 110 27 334 317 312 312 315 317 319 322 315 313 351 48 107 97 91 115 142 111 288 238 271 263 210 203 198 185 181 184 191 170 136 122 114 116 105 94 103 86 49 43 29 271 55 56 103 98 57 341 300 316 298 233 247 208 207 283 303 335 46 92 351 247 203 258 270 277 289 302 354 38 56 89 96 90 75 71 68 60 53 43
212 220 228 213 172 147 141 1 323 310 304 303 310 313 316 321 296 245 52 112 115 82 60 67 111 103 272 232 213 230 188 185 180 174 176 167 163 155 119 103 112 104 81 53 48 53 14 12 52 32 23 46 124 114 145 231 223 233 227 218 258 243 228 251 269 298 5 34 303 280 272 266 272 277 287 303 344 25 74 114 109 93 83 70 64 61 53 48
222 222 220 207 175 173 185 9 328 314 305 299 307 314 318 335 323 227 141 126 122 112 162 216 160 158 247 245 216 180 146 155 161 172 172 154 156 148 99 97 102 93 93 60 3 50 87 43 53 165 215 196 195 176 193 213 200 207 218 192 224 254 256 253 256 255 260 328 283 267 267 269 276 280 288 310 350 29 77 99 93 85 78 69 65 59 55 53
219 224 232 227 192 209 228 337 336 326 314 303 312 328 330 24 16 314 263 165 210 207 184 198 195 214 272 264 159 152 146 142 147 169 163 158 156 141 90 75 63 53 116 148 182 270 90 105 196 214 209 213 214 203 206 222 203 196 233 229 235 246 268 269 269 271 228 227 269 256 249 262 271 276 291 318 344 22 73 88 81 79 72 68 72 63 59 56
212 221 236 247 247 273 284 337 340 330 316 307 314 338 180 172 124 272 259 258 246 232 232 225 210 231 252 216 160 158 148 127 328 150 158 161 148 143 139 65 82 44 223 147 134 34 80 142 223 223 215 220 213 197 210 242 259 247 238 266 272 243 258 267 261 281 277 193 266 303 291 272 273 279 313 342 360 16 56 101 96 89 83 70 71 64 57 52
212 216 225 241 257 280 304 340 330 315 303 299 293 266 221 193 168 212 173 286 273 239 233 240 225 242 246 231 207 178 143 200 258 236 169 155 143 167 181 109 138 192 197 118 99 90 114 206 238 232 222 243 81 156 183 218 219 224 213 228 260 243 270 285 281 311 350 183 265 337 339 276 278 289 5 11 36 38 35 79 86 89 89 70 64 61 53 50
213 212 215 231 246 271 310 329 313 299 287 277 259 234 223 202 180 162 121 291 291 252 221 227 216 232 234 236 218 184 179 209 209 238 182 154 150 186 157 145 168 161 154 171 159 151 175 235 243 233 209 226 262 187 157 184 216 215 194 187 244 241 221 274 288 324 343 258 260 325 318 278 279 291 59 32 60 73 51 64 65 66 81 72 66 59 52 56
215 213 207 213 227 246 298 304 296 288 276 257 244 230 200 188 174 155 113 36 285 273 234 214 198 211 211 208 192 178 199 208 174 215 181 160 147 155 164 170 163 159 191 198 183 176 213 235 232 181 162 188 237 247 167 173 243 243 211 203 230 235 214 228 281 328 334 337 354 357 322 287 274 269 99 63 70 78 64 70 67 55 66 68 67 58 46 51
222 215 204 205 217 229 267 283 283 274 254 228 227 217 183 171 168 159 115 24 285 293 274 213 185 201 186 146 168 170 171 216 207 207 177 169 156 137 189 172 149 201 211 195 187 205 238 237 113 118 158 166 205 248 200 169 211 278 234 210 219 232 231 235 347 12 2 331 331 24 324 287 296 298 184 155 100 75 65 69 71 58 55 59 58 53 42 45
227 214 205 205 209 216 235 260 262 244 222 223 217 199 180 171 174 174 105 41 279 272 239 186 175 178 169 134 157 138 98 256 268 100 158 177 175 125 175 181 141 215 200 174 181 214 245 233 145 167 183 161 190 247 228 167 152 271 250 209 212 221 226 224 143 79 166 261 296 48 172 271 313 327 223 177 132 97 86 73 75 68 57 66 59 44 34 33
228 213 207 206 203 206 205 214 233 202 196 240 210 192 190 172 185 197 87 11 280 213 142 198 168 149 166 182 165 134 156 239 92 70 121 153 194 85 144 206 182 212 183 127 176 233 218 208 181 187 188 187 213 251 225 167 137 236 248 150 147 160 181 193 150 158 217 254 317 10 115 268 292 274 241 157 133 120 111 100 96 103 86 83 78 60 49 31
227 212 207 208 206 210 214 220 222 203 224 244 190 188 191 171 184 144 72 291 280 112 118 243 98 105 140 61 72 119 187 204 113 229 5 101 134 69 137 219 185 203 190 132 207 256 194 191 199 183 180 204 221 229 191 158 151 239 221 118 116 133 144 121 108 130 322 11 302 299 116 274 270 265 275 128 153 212 177 160 156 145 134 116 104 84 62 41
226 216 214 220 221 222 224 226 218 214 231 204 176 185 180 178 181 82 76 232 265 73 86 96 119 66 45 69 45 79 76 20 127 233 10 92 90 72 170 212 165 201 249 142 210 255 131 211 198 157 166 206 205 222 183 163 183 215 142 91 65 69 78 73 91 98 25 349 247 227 178 234 269 277 299 114 195 228 186 170 172 159 154 140 125 108 79 56
224 221 221 223 221 217 216 221 220 219 215 181 169 164 162 167 131 112 221 227 112 90 127 101 163 124 94 105 22 2 111 17 38 51 36 67 16 31 134 182 98 129 302 3 257 257 329 305 188 147 178 190 147 97 157 159 151 131 93 56 33 31 42 46 62 77 46 282 245 211 190 194 263 284 239 178 236 204 158 159 175 167 161 152 142 133 114 82
224 223 221 219 219 212 204 211 217 215 201 173 161 149 152 127 84 186 223 217 73 178 139 120 169 126 129 139 168 185 123 42 3 98 93 90 31 31 48 55 68 71 345 332 309 310 336 341 268 246 184 132 105 81 26 27 80 99 86 69 49 346 10 24 2 44 132 257 260 218 183 173 230 267 257 277 300 231 166 171 173 168 165 160 152 145 130 98
224 225 223 224 224 214 205 211 215 208 195 171 161 155 144 153 219 210 217 98 134 198 167 173 175 158 168 159 170 174 140 139 190 138 140 141 154 183 173 175 157 97 310 254 266 338 316 248 267 302 229 137 111 85 18 6 41 81 97 95 90 322 353 358 304 235 219 254 256 173 137 159 234 252 325 329 321 306 243 180 167 164 160 158 154 147 128 101
225 226 224 225 223 214 210 214 210 197 186 171 167 167 135 198 221 188 171 199 205 174 145 144 151 152 152 148 202 182 138 173 186 168 149 129 153 219 240 208 165 134 232 208 198 340 300 292 307 339 281 180 141 147 191 245 127 135 143 132 131 152 191 252 256 258 258 267 264 158 137 273 261 273 327 319 311 305 296 140 146 149 146 148 147 142 125 111
223 221 217 215 214 213 212 209 196 184 178 168 167 173 175 212 217 153 179 209 190 140 132 133 139 136 143 172 211 173 144 211 179 154 134 122 144 220 240 226 188 154 126 138 173 182 200 297 245 176 236 192 170 180 166 142 150 173 155 136 151 160 170 211 217 206 242 278 297 206 163 199 219 252 297 304 322 341 50 99 112 113 120 126 121 122 123 126
213 210 207 203 202 205 204 199 189 178 171 161 180 201 201 209 174 142 191 198 154 149 126 121 127 135 172 231 237 190 177 213 169 142 151 159 171 195 200 205 185 164 150 154 211 178 161 256 253 231 203 168 178 194 132 112 118 214 119 109 173 185 166 195 209 181 184 288 296 227 209 211 185 240 313 349 18 35 60 88 104 106 111 114 116 132 148 157
196 194 197 197 198 200 195 189 180 173 166 152 213 223 223 208 164 177 201 176 171 156 131 108 99 145 202 261 250 222 199 172 157 150 187 190 192 199 203 215 184 173 173 167 204 182 140 268 280 354 24 183 185 186 141 136 180 159 125 179 218 179 137 135 263 184 106 232 261 210 234 283 316 289 329 39 55 62 71 94 110 118 126 129 147 172 178 181
177 180 190 200 204 199 191 184 173 169 164 154 210 224 226 205 195 193 212 168 159 129 131 166 180 172 193 202 222 216 178 144 163 165 205 210 213 201 203 235 177 183 192 172 213 203 152 265 276 166 191 238 205 153 78 55 147 130 170 213 204 120 98 104 235 321 41 229 268 270 233 262 266 254 309 71 114 144 144 130 124 136 151 161 182 190 190 192
165 169 197 214 208 197 189 185 171 163 155 180 212 222 203 200 224 191 158 105 88 97 137 189 205 177 179 185 210 201 168 179 184 176 188 207 238 196 180 192 156 196 208 165 185 238 131 238 279 204 176 272 5 89 49 345 119 136 197 202 129 148 225 111 167 220 230 229 272 288 265 252 215 215 208 197 199 188 176 164 162 175 181 185 194 198 202 200
153 151 235 221 207 196 190 184 169 155 173 203 213 222 194 201 242 211 163 139 103 120 163 203 193 133 164 175 176 169 162 180 184 178 173 188 234 204 150 165 161 211 224 156 171 235 118 183 274 297 189 187 41 85 182 256 5 87 227 250 93 177 186 164 175 177 190 220 255 278 285 269 236 204 185 205 199 175 172 188 195 194 192 195 195 195 203 201
143 139 273 198 195 193 186 178 164 165 204 208 215 213 167 187 229 237 199 166 150 158 188 202 164 145 174 167 158 162 137 154 174 182 206 188 209 295 72 122 142 130 30 121 138 80 117 176 238 300 330 138 153 199 188 186 170 136 192 211 230 221 169 237 225 136 146 195 219 255 265 261 253 189 186 221 199 171 180 192 199 198 195 207 207 202 208 203
137 179 216 175 179 178 174 170 171 190 205 214 210 190 163 168 179 207 311 102 129 145 155 167 172 172 166 156 183 180 132 135 168 175 230 213 191 225 208 144 146 158 54 73 77 34 162 172 205 244 261 188 220 237 183 167 159 155 178 193 195 181 150 251 251 185 150 189 184 223 260 263 253 204 205 225 186 175 187 187 188 196 196 204 212 211 212 205
141 177 176 172 172 167 162 177 196 178 215 222 195 171 157 155 163 174 171 69 114 147 105 140 176 174 160 166 189 174 144 153 180 180 213 220 208 195 185 165 140 131 103 91 102 238 112 112 194 245 226 213 230 324 46 158 137 138 172 172 162 150 135 192 234 218 177 245 145 200 261 259 243 247 241 221 182 174 183 179 180 196 201 205 213 214 213 208
158 160 146 171 173 167 163 197 190 190 232 212 158 169 167 162 171 169 171 168 154 144 138 172 187 191 196 175 161 165 157 160 186 192 211 221 212 196 167 185 150 96 97 131 199 46 76 102 189 268 291 295 319 4 7 19 89 136 260 141 145 173 151 167 205 176 155 253 221 221 255 247 249 289 284 236 171 157 176 187 184 194 206 211 214 214 213 208
135 108 90 175 177 177 184 198 191 206 217 190 169 197 176 145 183 175 176 187 176 144 155 190 194 201 205 166 155 176 173 175 203 203 202 207 208 23 26 191 180 150 152 198 180 180 198 139 148 228 286 298 304 334 350 349 33 175 253 281 141 133 111 101 140 111 122 233 208 228 253 242 261 330 352 45 135 158 198 208 192 199 212 216 217 215 211 203
120 114 2 181 184 190 214 190 181 204 206 203 203 189 176 221 205 195 187 182 175 153 155 188 176 174 180 160 162 186 189 200 218 209 195 206 240 357 10 350 192 178 186 177 145 162 187 176 158 186 229 244 241 226 230 249 231 178 234 250 232 136 129 119 117 137 199 218 191 221 246 243 352 335 278 264 217 208 246 252 237 235 229 224 226 222 210 198
123 162 47 160 197 213 244 196 146 184 199 203 207 193 197 214 222 197 191 194 191 171 170 185 129 138 173 169 171 202 212 213 214 197 182 190 226 308 355 12 56 151 141 112 102 111 128 193 206 205 227 239 223 211 207 148 146 204 234 222 225 204 150 125 118 164 200 212 221 234 233 237 272 251 217 227 239 237 252 257 246 243 237 230 231 226 212 203
117 162 171 166 222 226 239 229 197 180 175 187 195 197 207 214 220 193 198 210 192 175 186 194 155 180 193 178 185 211 213 209 204 193 178 167 182 306 358 53 61 70 113 115 101 95 114 223 229 210 236 248 143 164 190 134 157 204 229 244 244 227 151 134 169 205 176 176 246 245 228 215 252 253 220 202 223 238 249 246 238 239 237 224 208 202 202 199
148 152 191 182 193 202 216 220 208 214 224 210 200 201 209 212 210 203 202 200 167 182 198 215 202 206 196 177 183 204 198 201 207 196 177 154 153 146 21 33 43 27 63 89 61 95 132 226 218 170 233 255 105 134 173 148 175 213 221 238 250 247 193 154 202 222 199 208 246 253 242 229 246 257 241 210 217 231 243 242 231 226 218 190 176 185 193 189
135 6 273 318 321 201 208 201 190 209 226 226 228 232 223 216 213 208 177 123 154 204 203 217 220 210 197 183 184 200 200 197 206 201 183 173 170 155 144 255 259 44 77 95 36 95 136 218 186 147 227 267 113 163 188 164 190 230 233 234 241 246 212 184 220 232 219 226 248 257 259 258 256 249 241 246 244 232 229 212 168 174 183 174 177 187 187 184
131 166 240 348 307 230 243 193 178 197 218 218 223 230 227 225 224 218 176 170 204 209 197 216 223 203 191 194 195 210 212 196 199 204 181 177 192 182 182 199 163 97 87 132 185 323 111 190 145 112 203 294 304 181 190 162 180 232 256 252 241 217 212 225 233 236 229 239 248 252 261 268 266 243 217 241 238 174 171 178 179 187 183 172 182 195 191 191
112 30 92 117 232 201 180 193 181 194 210 208 216 220 216 224 223 217 216 208 209 204 193 207 217 204 191 202 208 218 218 196 196 201 179 180 195 187 187 188 155 146 157 162 172 47 114 176 33 79 132 278 299 176 204 35 36 281 270 261 244 216 229 240 231 208 216 232 243 247 250 259 265 262 172 190 191 178 187 194 198 209 197 183 190 199 200 201
140 354 83 114 243 222 185 188 186 200 213 207 211 216 216 223 212 194 213 251 190 215 214 206 208 201 197 211 216 218 203 159 167 169 136 135 122 95 108 136 137 149 163 157 138 85 131 143 121 114 161 268 295 186 139 43 16 282 264 246 232 232 240 247 248 233 224 212 214 230 233 242 254 265 252 238 225 215 209 196 189 203 205 203 204 203 207 214